Weather History for Moline, IL

Change the Weather History Date:

Wednesday, March 26, 2014

  Actual Average Record
Temperature  
Mean Temperature 28 °F 43 °F  
Max Temperature 45 °F 54 °F 84 °F (1991)
Min Temperature 10 °F 33 °F 9 °F (1955)
Degree Days  
Heating Degree Days 37 22  
Month to date heating degree days 929 703  
Since 1 July heating degree days 6599 5501  
Cooling Degree Days 0 0  
Month to date cooling degree days 0 0  
Year to date cooling degree days 0 0  
Moisture  
Dew Point 14 °F    
Average Humidity 56    
Maximum Humidity 84    
Minimum Humidity 28    
Precipitation  
Precipitation 0.00 in 0.10 in 1.35 in (1916)
Month to date precipitation 0.71 2.37  
Year to date precipitation 4.73 5.46  
Sea Level Pressure  
Sea Level Pressure 30.16 in    
Wind  
Wind Speed 11 mph (SSE)    
Max Wind Speed 23 mph    
Max Gust Speed 30 mph    
Visibility 10 miles    
Events      
T = Trace of Precipitation, MM = Missing Value Source: NWS Daily Summary

Daily Weather History Graph

Daily Weather History Graph

Search for Another Location

Airport:

Trip Planner

Search our weather history database for the weather conditions in past years. The results will help you decide how hot, cold, wet, or windy it might be!

Date:

Astronomy

Mar. 26, 2014 Rise Set
Actual Time 6:55 AM CDT 7:20 PM CDT
Civil Twilight 6:27 AM CDT 7:48 PM CDT
Nautical Twilight 5:54 AM CDT 8:21 PM CDT
Astronomical Twilight 5:21 AM CDT 8:54 PM CDT
Moon 4:06 AM CDT (3/26) 2:56 PM CDT (3/26)
Length of Visible Light 13h 21m
Length of Day
12h 25m
Waning Crescent, 21% of the Moon is Illuminated
Mar 26
Waning Crescent
Mar 30
New
Apr 7
First Quarter
Apr 15
Full
Apr 22
Last Quarter

Hourly Weather History & Observations

Time (CDT) Temp. Windchill Dew Point Humidity Pressure Visibility Wind Dir Wind Speed Gust Speed Precip Events Conditions
12:52 AM 16.0 °F - 10.9 °F 81% 30.29 in 10.0 mi Calm Calm - N/A   Clear
1:52 AM 15.1 °F - 10.0 °F 80% 30.31 in 10.0 mi Calm Calm - N/A   Clear
2:52 AM 14.0 °F - 8.1 °F 77% 30.30 in 10.0 mi Calm Calm - N/A   Clear
3:52 AM 12.9 °F - 9.0 °F 84% 30.30 in 10.0 mi Calm Calm - N/A   Clear
4:52 AM 10.9 °F - 6.1 °F 81% 30.31 in 10.0 mi Calm Calm - N/A   Clear
5:52 AM 12.9 °F 5.2 °F 8.1 °F 81% 30.30 in 10.0 mi East 4.6 mph - N/A   Clear
6:52 AM 14.0 °F 8.2 °F 8.1 °F 77% 30.31 in 10.0 mi SSE 3.5 mph - N/A   Clear
7:52 AM 19.0 °F 8.2 °F 10.9 °F 71% 30.31 in 10.0 mi South 9.2 mph - N/A   Clear
8:52 AM 24.1 °F 16.0 °F 12.9 °F 62% 30.33 in 10.0 mi South 6.9 mph - N/A   Clear
9:52 AM 28.0 °F 16.5 °F 12.9 °F 53% 30.29 in 10.0 mi SSE 15.0 mph - N/A   Clear
10:52 AM 32.0 °F 22.5 °F 15.1 °F 50% 30.27 in 10.0 mi SSE 12.7 mph - N/A   Clear
11:52 AM 36.0 °F 27.1 °F 14.0 °F 41% 30.23 in 10.0 mi SSE 13.8 mph - N/A   Clear
12:52 PM 39.9 °F 32.1 °F 16.0 °F 38% 30.20 in 10.0 mi South 13.8 mph 20.7 mph N/A   Scattered Clouds
1:52 PM 39.9 °F 31.1 °F 12.9 °F 33% 30.16 in 10.0 mi South 17.3 mph 20.7 mph N/A   Overcast
2:52 PM 44.1 °F 35.7 °F 14.0 °F 30% 30.11 in 10.0 mi SSE 20.7 mph 26.5 mph N/A   Scattered Clouds
3:52 PM 44.1 °F 36.2 °F 15.1 °F 31% 30.06 in 10.0 mi SSE 18.4 mph 27.6 mph N/A   Mostly Cloudy
4:52 PM 43.0 °F 35.1 °F 16.0 °F 34% 30.02 in 10.0 mi SSE 17.3 mph 28.8 mph N/A   Mostly Cloudy
5:52 PM 42.1 °F 35.2 °F 18.0 °F 38% 30.00 in 10.0 mi SSE 12.7 mph 20.7 mph N/A   Overcast
6:52 PM 41.0 °F 33.9 °F 18.0 °F 40% 29.99 in 10.0 mi SSE 12.7 mph - N/A   Overcast
7:52 PM 41.0 °F 33.9 °F 19.0 °F 41% 29.96 in 10.0 mi SSE 12.7 mph - N/A   Overcast
8:52 PM 41.0 °F 33.1 °F 19.9 °F 43% 29.95 in 10.0 mi South 15.0 mph 19.6 mph N/A   Overcast
9:52 PM 41.0 °F 33.5 °F 19.9 °F 43% 29.94 in 10.0 mi SSE 13.8 mph 21.9 mph N/A   Mostly Cloudy
10:52 PM 39.9 °F 32.5 °F 21.0 °F 47% 29.92 in 10.0 mi SSE 12.7 mph 23.0 mph N/A   Overcast
11:52 PM 41.0 °F 33.9 °F 21.9 °F 47% 29.90 in 10.0 mi South 12.7 mph 21.9 mph N/A   Overcast